Iasi, Romania

2:56 PM EET on February 07, 2016 (GMT +0200)
Iasi

Weather History for LRIA - November, 2013

Change the Weather History Date:

Sunday, November 3, 2013

  Actual Average Record
Temperature  
Mean Temperature 56 °F -  
Max Temperature 69 °F 46 °F - ()
Min Temperature 44 °F 33 °F - ()
Degree Days  
Heating Degree Days 8    
Growing Degree Days 6 (Base 50)    
Moisture  
Dew Point 49 °F    
Average Humidity 78    
Maximum Humidity 100    
Minimum Humidity 47    
Precipitation  
Precipitation 0.00 in 0.05 in - ()
Sea Level Pressure  
Sea Level Pressure 29.87 in    
Wind  
Wind Speed 5 mph ()    
Max Wind Speed 9 mph    
Max Gust Speed -    
Visibility 4.3 miles    
Events      
T = Trace of Precipitation, MM = Missing Value Source: Averaged Metar Reports

Daily Weather History Graph

Daily Weather History Graph

Search for Another Location

Airport or City:

Trip Planner

Search our weather history database for the weather conditions in past years. The results will help you decide how hot, cold, wet, or windy it might be!

Date:

Astronomy

Nov. 03, 2013 Rise Set
Actual Time 6:55 AM EET 4:49 PM EET
Civil Twilight 6:23 AM EET 5:22 PM EET
Nautical Twilight 5:47 AM EET 5:58 PM EET
Astronomical Twilight 5:11 AM EET 6:33 PM EET
Moon 6:37 AM EET (11/3) 4:48 PM EET (11/3)
Length of Visible Light 10h 58m
Length of Day
9h 54m
Waning Crescent, 0% of the Moon is Illuminated
Nov 3
Waning Crescent
Nov 3
New
Nov 10
First Quarter
Nov 17
Full
Nov 25
Last Quarter

Hourly Weather History & Observations

Time (EET) Temp. Windchill Dew Point Humidity Pressure Visibility Wind Dir Wind Speed Gust Speed Precip Events Conditions
12:00 AM 48 °F - 46 °F 90% 29.97 in 6 mi ENE 4.5 mph - -  
12:00 AM 46.4 °F 42.9 °F 44.6 °F 93% 29.95 in 5.0 mi East 6.9 mph - N/A   Unknown
1:00 AM 47 °F - 46 °F 92% 29.96 in 2 mi ENE 4.5 mph - -   Mist
1:00 AM 46.4 °F 41.9 °F 44.6 °F 93% 29.95 in 5.0 mi ESE 9.2 mph - N/A   Unknown
2:00 AM 46 °F - 45 °F 95% 29.94 in 2 mi East 4.5 mph - -   Mist
2:00 AM 46.4 °F 42.9 °F 44.6 °F 93% 29.92 in 5.0 mi East 6.9 mph - N/A   Unknown
3:00 AM 46 °F - 45 °F 96% 29.94 in 2 mi ENE 4.5 mph - -   Mist
3:00 AM 46.4 °F 42.9 °F 44.6 °F 93% 29.92 in 5.0 mi East 6.9 mph - N/A   Unknown
4:00 AM 46 °F - 45 °F 95% 29.92 in 2 mi East 4.5 mph - -   Mist
4:00 AM 46.4 °F 41.9 °F 44.6 °F 93% 29.92 in 4.3 mi East 9.2 mph - N/A   Unknown
5:00 AM 47 °F - 46 °F 93% 29.92 in 2 mi East 4.5 mph - -   Mist
5:00 AM 46.4 °F 42.9 °F 44.6 °F 93% 29.92 in 5.0 mi East 6.9 mph - N/A   Unknown
5:30 AM 46.4 °F 44.3 °F 44.6 °F 93% 29.92 in 5.0 mi NE 4.6 mph - N/A   Unknown
6:00 AM 46.4 °F 42.9 °F 46.4 °F 100% 29.89 in 5.0 mi East 6.9 mph - N/A   Unknown
6:30 AM 46.4 °F 42.9 °F 44.6 °F 93% 29.89 in 3.1 mi East 6.9 mph - N/A   Mist
7:00 AM 46 °F - 45 °F 96% 29.92 in 2 mi ENE 2.2 mph - -   Mist
7:00 AM 44.6 °F 42.2 °F 44.6 °F 100% 29.92 in 4.3 mi East 4.6 mph - N/A   Mist
7:30 AM 46.4 °F 42.9 °F 44.6 °F 93% 29.92 in 4.3 mi ENE 6.9 mph - N/A   Unknown
8:00 AM 46 °F - 45 °F 96% 29.93 in 2 mi ENE 4.5 mph - -   Mist
8:00 AM 46.4 °F 42.9 °F 44.6 °F 93% 29.92 in 4.3 mi East 6.9 mph - N/A   Unknown
8:30 AM 46.4 °F 42.9 °F 46.4 °F 100% 29.92 in 5.0 mi East 6.9 mph - N/A   Unknown
9:00 AM 47 °F - 46 °F 97% 29.95 in 2 mi ENE 2.2 mph - -   Mist
9:00 AM 50.0 °F - 48.2 °F 94% 29.92 in 5.0 mi East 9.2 mph - N/A   Unknown
9:30 AM 53.6 °F - 50.0 °F 88% 29.92 in 5.0 mi East 9.2 mph - N/A   Unknown
10:00 AM 53 °F - 49 °F 81% 29.94 in 2 mi East 4.5 mph - -   Mist
10:00 AM 53.6 °F - 50.0 °F 88% 29.92 in 5.0 mi East 6.9 mph - N/A   Unknown
10:30 AM 57.2 °F - 50.0 °F 77% 29.92 in - East 6.9 mph - N/A   Clear
11:00 AM 57 °F - 50 °F 70% 29.93 in 2 mi East 4.5 mph - -   Mist
11:00 AM 60.8 °F - 50.0 °F 68% 29.92 in - ESE 4.6 mph - N/A   Clear
11:30 AM 62.6 °F - 51.8 °F 68% 29.89 in - ESE 6.9 mph - N/A   Clear
12:00 PM 63 °F - 51 °F 56% 29.91 in 2 mi East 4.5 mph - -   Mist
12:00 PM 64.4 °F - 51.8 °F 64% 29.89 in - East 4.6 mph - N/A   Clear
12:30 PM 66.2 °F - 51.8 °F 60% 29.89 in - ESE 4.6 mph - N/A   Clear
1:00 PM 65 °F - 52 °F 54% 29.88 in 6 mi East 4.5 mph - -   Clear
1:00 PM 66.2 °F - 51.8 °F 60% 29.86 in - East 6.9 mph - N/A   Clear
1:30 PM 68.0 °F - 51.8 °F 56% 29.86 in - ESE 6.9 mph - N/A   Clear
2:00 PM 68 °F - 52 °F 47% 29.86 in 6 mi East 4.5 mph - -   Clear
2:00 PM 68.0 °F - 51.8 °F 56% 29.86 in - East 6.9 mph - N/A   Clear
2:30 PM 68.0 °F - 51.8 °F 56% 29.86 in - East 6.9 mph - N/A   Clear
3:00 PM 64.4 °F - 53.6 °F 68% 29.86 in - East 9.2 mph - N/A   Clear
3:30 PM 62.6 °F - 51.8 °F 68% 29.83 in - East 9.2 mph - N/A   Clear
4:00 PM 64 °F - 53 °F 58% 29.84 in 6 mi East 4.5 mph - -   Overcast
4:00 PM 62.6 °F - 51.8 °F 68% 29.83 in - East 6.9 mph - N/A   Clear
4:30 PM 60.8 °F - 51.8 °F 72% 29.83 in - East 6.9 mph - N/A   Clear
5:00 PM 62 °F - 53 °F 63% 29.82 in 6 mi East 4.5 mph - -   Overcast
5:00 PM 60.8 °F - 51.8 °F 72% 29.80 in 5.6 mi East 9.2 mph - N/A   Unknown
5:30 PM 59.0 °F - 51.8 °F 77% 29.80 in 5.0 mi East 9.2 mph - N/A   Unknown
6:00 PM 60 °F - 52 °F 69% 29.82 in 6 mi East 2.2 mph - -   Overcast
6:00 PM 59.0 °F - 51.8 °F 77% 29.80 in - East 6.9 mph - N/A   Clear
6:30 PM 59.0 °F - 51.8 °F 77% 29.80 in - ESE 6.9 mph - N/A   Clear
7:00 PM 59 °F - 52 °F 69% 29.81 in 6 mi East 4.5 mph - -   Overcast
7:00 PM 57.2 °F - 51.8 °F 82% 29.80 in - ESE 4.6 mph - N/A   Clear
7:30 PM 57.2 °F - 50.0 °F 77% 29.77 in - ESE 4.6 mph - N/A   Clear
8:00 PM 58 °F - 51 °F 70% 29.79 in 6 mi East 4.5 mph - -   Overcast
8:00 PM 60.8 °F - 50.0 °F 68% 29.77 in - SSE 9.2 mph - N/A   Clear
8:30 PM 59.0 °F - 48.2 °F 67% 29.80 in - SSE 4.6 mph - N/A   Clear
9:00 PM 61 °F - 49 °F 54% 29.79 in 6 mi South 4.5 mph - -   Scattered Clouds
9:00 PM 60.8 °F - 48.2 °F 63% 29.77 in - SSE 6.9 mph - N/A   Clear
10:00 PM 60 °F - 49 °F 58% 29.79 in 6 mi SSW 4.5 mph - -   Mostly Cloudy
10:00 PM 59.0 °F - 48.2 °F 67% 29.77 in - South 4.6 mph - N/A   Clear
11:00 PM 55 °F - 50 °F 77% 29.78 in 6 mi East 2.2 mph - -   Partly Cloudy
11:00 PM 55.4 °F - 50.0 °F 82% 29.77 in - East 6.9 mph - N/A   Clear